Language: 


Des rapports , des résumés tant et plus, au choix de chacun....


Données statistiques de la station
Quotidien Rapport Juillet 9, 2017 Unités:  Anglais    Métrique   les deux
« Précédent Jour
Suivant Jour »
Quotidien Hebdomadaire Mensuel Annuel Actuel
  Haut: Bas: Moyen:
Température: 86 °F 32 °F 69.4 °F
Pt de rosée: 60.8 °F 50 °F 55 °F
Humidité: 97 % 0 % 66 %
Vitesse du vent: 8.7 mph 0 mph 2.8 mph
Rafales: 10.5 mph - -
Vent:- - East
Pression: 30 in 29.8 in -
Précipitation: 0 in    
Historical Graphs
 
 
Données statistiques pour Juillet 9, 2017
Heure Température Point de rosée Pression Vent Vitesse du vent Refales Humidité Pluie (taux horaire)
00:04 60.6 °F 57.2 °F 30 in Calm   2.5 mph 86 % 0 in
00:09 60.6 °F 57.2 °F 30 in Calm     87 % 0 in
00:14 60.4 °F 57.2 °F 30 in Calm     87 % 0 in
00:19 60.4 °F 57.2 °F 30 in Calm     87 % 0 in
00:24 59.5 °F 55.4 °F 30 in Calm     86 % 0 in
00:29 59.2 °F 55.4 °F 30 in Calm     86 % 0 in
00:34 58.8 °F 55.4 °F 30 in Calm     86 % 0 in
00:39 58.5 °F 55.4 °F 30 in Calm     86 % 0 in
00:44 58.1 °F 55.4 °F 30 in Calm     86 % 0 in
00:49 58.1 °F 55.4 °F 30 in Calm     87 % 0 in
00:54 58.5 °F 55.4 °F 30 in Calm   2.9 mph 89 % 0 in
00:59 58.6 °F 55.4 °F 30 in Calm   2.9 mph 90 % 0 in
01:04 58.6 °F 55.4 °F 30 in Calm     90 % 0 in
01:09 58.6 °F 55.4 °F 30 in Calm     90 % 0 in
01:14 58.5 °F 55.4 °F 30 in Calm   1.6 mph 90 % 0 in
01:19 58.5 °F 55.4 °F 30 in Calm   1.6 mph 91 % 0 in
01:24 58.5 °F 55.4 °F 30 in Calm   3.4 mph 91 % 0 in
01:29 58.5 °F 55.4 °F 30 in Calm   4.9 mph 91 % 0 in
01:35 58.6 °F 55.4 °F 30 in North 3.1 mph 4.9 mph 92 % 0 in
01:40 58.6 °F 55.4 °F 30 in Calm   3.6 mph 92 % 0 in
01:45 58.6 °F 55.4 °F 30 in NNW 0.9 mph 4 mph 92 % 0 in
01:50 58.6 °F 55.4 °F 30 in NNE 2.7 mph 4.3 mph 92 % 0 in
01:55 58.5 °F 55.4 °F 30 in NNE 3.4 mph 4.9 mph 92 % 0 in
02:00 58.5 °F 55.4 °F 30 in NNE 2.2 mph 5.6 mph 92 % 0 in
02:05 58.5 °F 57.2 °F 30 in NNE 4 mph 5.6 mph 93 % 0 in
02:10 58.3 °F 57.2 °F 30 in NNE 4.3 mph 4.9 mph 93 % 0 in
02:15 58.3 °F 57.2 °F 30 in NE 3.6 mph 4.9 mph 93 % 0 in
02:20 58.1 °F 57.2 °F 30 in ENE 3.4 mph 4.9 mph 93 % 0 in
02:25 58.1 °F 57.2 °F 30 in Calm   4.9 mph 93 % 0 in
02:30 58.1 °F 57.2 °F 30 in Calm   4.3 mph 93 % 0 in
02:35 58.1 °F 57.2 °F 30 in Calm   3.1 mph 93 % 0 in
02:40 58.1 °F 57.2 °F 30 in NNE 2.2 mph 3.1 mph 93 % 0 in
02:45 57.9 °F 55.4 °F 30 in Calm   2.9 mph 93 % 0 in
02:50 57.9 °F 55.4 °F 30 in Calm   2.7 mph 94 % 0 in
02:55 57.7 °F 55.4 °F 30 in Calm   3.6 mph 94 % 0 in
03:00 57.7 °F 55.4 °F 30 in Calm   3.6 mph 94 % 0 in
03:05 57.9 °F 55.4 °F 30 in Calm   3.4 mph 94 % 0 in
03:10 57.9 °F 55.4 °F 30 in Calm   2.7 mph 94 % 0 in
03:15 57.9 °F 55.4 °F 30 in Calm   2.7 mph 94 % 0 in
03:16 57.9 °F 55.4 °F 30 in Calm   3.6 mph 94 % 0 in
03:21 57.7 °F 55.4 °F 30 in Calm   3.6 mph 94 % 0 in
03:26 57.6 °F 55.4 °F 30 in Calm     94 % 0 in
03:31 57.6 °F 55.4 °F 30 in Calm     94 % 0 in
03:36 57 °F 55.4 °F 30 in Calm   2 mph 94 % 0 in
03:41 57 °F 55.4 °F 30 in Calm   2 mph 94 % 0 in
03:46 57 °F 55.4 °F 30 in North 2.5 mph 3.4 mph 94 % 0 in
03:51 57 °F 55.4 °F 30 in Calm   3.4 mph 95 % 0 in
03:56 57 °F 55.4 °F 30 in Calm   2.7 mph 95 % 0 in
04:01 56.8 °F 55.4 °F 30 in Calm   2.9 mph 95 % 0 in
04:06 57 °F 55.4 °F 30 in Calm   3.1 mph 95 % 0 in
04:11 56.8 °F 55.4 °F 30 in Calm   3.1 mph 95 % 0 in
04:17 56.7 °F 55.4 °F 30 in Calm   3.6 mph 95 % 0 in
04:22 56.7 °F 55.4 °F 30 in Calm   3.6 mph 95 % 0 in
04:27 56.7 °F 55.4 °F 30 in Calm   2.7 mph 95 % 0 in
04:32 56.5 °F 55.4 °F 30 in Calm     95 % 0 in
04:37 56.1 °F 55.4 °F 30 in Calm     94 % 0 in
04:42 56.1 °F 55.4 °F 30 in NNE 2.5 mph 2.7 mph 95 % 0 in
04:47 56.1 °F 55.4 °F 30 in Calm   2.7 mph 95 % 0 in
04:52 56.1 °F 55.4 °F 30 in Calm   2.5 mph 95 % 0 in
04:57 56.1 °F 55.4 °F 30 in Calm   2.5 mph 95 % 0 in
05:02 56.1 °F 55.4 °F 30 in Calm   2.5 mph 95 % 0 in
05:07 56.1 °F 55.4 °F 30 in NNE 1.3 mph 2.2 mph 96 % 0 in
05:12 56.1 °F 55.4 °F 30 in North 2 mph 3.1 mph 96 % 0 in
05:17 55.9 °F 55.4 °F 30 in Calm   3.1 mph 96 % 0 in
05:22 55.8 °F 55.4 °F 30 in Calm   2.7 mph 95 % 0 in
05:26 55.8 °F 55.4 °F 30 in Calm   4 mph 96 % 0 in
05:31 55.8 °F 55.4 °F 30 in Calm   4 mph 96 % 0 in
05:36 55.8 °F 55.4 °F 30 in North 2.9 mph 4 mph 96 % 0 in
05:42 55.8 °F 55.4 °F 30 in Calm   4 mph 96 % 0 in
05:47 55.8 °F 55.4 °F 30 in NNE 2.7 mph 4 mph 96 % 0 in
05:52 55.8 °F 55.4 °F 30 in NE 2 mph 3.8 mph 97 % 0 in
05:57 55.8 °F 55.4 °F 30 in North 2.5 mph 3.8 mph 97 % 0 in
06:02 55.8 °F 55.4 °F 30 in Calm   3.6 mph 97 % 0 in
06:07 55.6 °F 55.4 °F 30 in Calm   3.6 mph 96 % 0 in
06:12 55.4 °F 55.4 °F 30 in Calm     96 % 0 in
06:17 55.4 °F 55.4 °F 29.9 in North 2.5 mph 2.9 mph 96 % 0 in
06:22 55.6 °F 55.4 °F 29.9 in North 2.2 mph 3.6 mph 97 % 0 in
06:27 55.9 °F 55.4 °F 29.9 in NNE 2.2 mph 3.8 mph 97 % 0 in
06:32 56.1 °F 55.4 °F 30 in NE 3.8 mph 3.8 mph 97 % 0 in
06:37 56.3 °F 55.4 °F 30 in Calm   4 mph 97 % 0 in
06:42 56.5 °F 55.4 °F 30 in North 1.1 mph 4 mph 97 % 0 in
06:47 56.7 °F 55.4 °F 30 in Calm   3.4 mph 97 % 0 in
06:52 56.7 °F 55.4 °F 30 in Calm   2.2 mph 97 % 0 in
06:57 57.6 °F 57.2 °F 30 in Calm   1.3 mph 97 % 0 in
07:02 58.1 °F 57.2 °F 30 in Calm     97 % 0 in
07:07 58.6 °F 57.2 °F 30 in Calm   1.1 mph 97 % 0 in
07:13 59 °F 59 °F 30 in Calm   1.1 mph 96 % 0 in
07:18 59.4 °F 59 °F 30 in Calm   2.5 mph 96 % 0 in
07:23 60.4 °F 59 °F 30 in Calm   3.6 mph 96 % 0 in
07:28 60.6 °F 60.8 °F 30 in Calm   3.6 mph 96 % 0 in
07:33 60.6 °F 60.8 °F 30 in NE 1.3 mph 4.7 mph 96 % 0 in
07:38 60.6 °F 60.8 °F 30 in East 3.4 mph 4.7 mph 96 % 0 in
07:43 60.6 °F 60.8 °F 30 in NE 3.8 mph 5.4 mph 96 % 0 in
07:48 63.5 °F 60.8 °F 30 in East 1.1 mph 5.6 mph 91 % 0 in
07:53 64.2 °F 60.8 °F 30 in Calm   5.6 mph 89 % 0 in
07:58 64.6 °F 60.8 °F 30 in ENE 5.6 mph 6 mph 88 % 0 in
08:03 65.3 °F 60.8 °F 30 in Calm   6 mph 85 % 0 in
08:08 65.7 °F 60.8 °F 30 in Calm   5.4 mph 85 % 0 in
08:13 65.7 °F 60.8 °F 30 in East 4 mph 4 mph 85 % 0 in
08:18 65.7 °F 60.8 °F 30 in ESE 2.5 mph 5.4 mph 85 % 0 in
08:23 65.7 °F 60.8 °F 30 in Calm   5.4 mph 85 % 0 in
08:28 65.7 °F 60.8 °F 30 in Calm   4.7 mph 85 % 0 in
08:33 65.7 °F 60.8 °F 30 in Calm   4.7 mph 85 % 0 in
08:38 65.7 °F 60.8 °F 30 in ESE 5.6 mph 6 mph 85 % 0 in
08:43 65.7 °F 60.8 °F 30 in East 4.9 mph 7.4 mph 85 % 0 in
08:48 65.7 °F 60.8 °F 30 in Calm   7.4 mph 85 % 0 in
08:53 65.7 °F 60.8 °F 30 in East 8.5 mph 8.5 mph 85 % 0 in
08:58 65.7 °F 60.8 °F 30 in Calm   8.5 mph 85 % 0 in
09:03 65.7 °F 60.8 °F 30 in East 6.3 mph 8.7 mph 85 % 0 in
09:08 65.7 °F 60.8 °F 30 in ESE 3.1 mph 8.7 mph 85 % 0 in
09:14 65.7 °F 60.8 °F 30 in East 2 mph 7.4 mph 85 % 0 in
09:19 65.7 °F 60.8 °F 30 in ENE 2.7 mph 7.8 mph 85 % 0 in
09:24 65.7 °F 60.8 °F 30 in ESE 5.4 mph 8.7 mph 85 % 0 in
09:29 65.7 °F 60.8 °F 30 in NNE 7.8 mph 8.7 mph 85 % 0 in
09:34 65.7 °F 60.8 °F 30 in ENE 6 mph 8.5 mph 85 % 0 in
09:39 65.7 °F 60.8 °F 30 in East 4.3 mph 8.1 mph 85 % 0 in
09:44 65.7 °F 60.8 °F 30 in ESE 6 mph 8.7 mph 85 % 0 in
09:49 65.7 °F 60.8 °F 30 in ENE 6.3 mph 8.7 mph 85 % 0 in
09:54 65.7 °F 60.8 °F 30 in East 3.4 mph 7.4 mph 85 % 0 in
09:59 65.7 °F 60.8 °F 30 in ENE 1.6 mph 8.5 mph 85 % 0 in
10:09 65.7 °F 60.8 °F 30 in NE 3.4 mph 8.7 mph 85 % 0 in
10:14 65.7 °F 60.8 °F 30 in ENE 4.3 mph 8.7 mph 85 % 0 in
10:19 65.7 °F 60.8 °F 30 in East 6.5 mph 7.6 mph 85 % 0 in
10:24 65.7 °F 60.8 °F 30 in ESE 6 mph 8.5 mph 85 % 0 in
10:29 65.7 °F 60.8 °F 30 in ENE 5.4 mph 8.5 mph 85 % 0 in
10:34 65.7 °F 60.8 °F 30 in ENE 7.8 mph 8.5 mph 85 % 0 in
10:39 65.7 °F 60.8 °F 30 in East 6 mph 8.9 mph 85 % 0 in
10:44 65.7 °F 60.8 °F 30 in ESE 6 mph 8.9 mph 85 % 0 in
10:49 65.7 °F 60.8 °F 30 in Calm   7.8 mph 85 % 0 in
10:54 65.7 °F 60.8 °F 30 in ESE 3.1 mph 7.8 mph 85 % 0 in
11:00 65.7 °F 60.8 °F 30 in ESE 3.6 mph 8.1 mph 85 % 0 in
11:05 65.7 °F 60.8 °F 30 in SE 4.3 mph 8.5 mph 85 % 0 in
11:10 65.7 °F 60.8 °F 30 in East 4.7 mph 8.5 mph 85 % 0 in
11:15 65.7 °F 60.8 °F 30 in NE 7.6 mph 7.6 mph 85 % 0 in
11:20 65.7 °F 60.8 °F 30 in ENE 4 mph 7.6 mph 85 % 0 in
11:25 65.7 °F 60.8 °F 30 in East 6.3 mph 7.4 mph 85 % 0 in
11:30 65.7 °F 60.8 °F 30 in NE 4.3 mph 10.3 mph 85 % 0 in
11:35 65.7 °F 60.8 °F 30 in ENE 5.8 mph 10.3 mph 85 % 0 in
11:40 65.7 °F 60.8 °F 30 in NE 5.8 mph 7.8 mph 85 % 0 in
11:45 65.7 °F 60.8 °F 29.9 in SE 2.7 mph 7.8 mph 85 % 0 in
11:50 65.7 °F 60.8 °F 29.9 in Calm   6.3 mph 85 % 0 in
11:55 65.7 °F 60.8 °F 29.9 in ESE 3.4 mph 6.5 mph 85 % 0 in
12:00 65.7 °F 60.8 °F 29.9 in ENE 2.7 mph 7.4 mph 85 % 0 in
12:06 65.7 °F 60.8 °F 29.9 in SSE 4.9 mph 10.1 mph 85 % 0 in
12:11 65.7 °F 60.8 °F 29.9 in ESE 4.3 mph 10.1 mph 85 % 0 in
12:16 65.7 °F 60.8 °F 29.9 in ESE 3.8 mph 7.4 mph 85 % 0 in
12:21 65.7 °F 60.8 °F 29.9 in ESE 3.8 mph 7.8 mph 85 % 0 in
12:26 65.7 °F 60.8 °F 29.9 in ESE 7.2 mph 8.5 mph 85 % 0 in
12:31 65.7 °F 60.8 °F 29.9 in SE 6.5 mph 10.3 mph 85 % 0 in
12:36 65.7 °F 60.8 °F 29.9 in ESE 4 mph 10.3 mph 85 % 0 in
12:41 65.7 °F 60.8 °F 29.9 in East 6.7 mph 8.7 mph 85 % 0 in
12:46 65.7 °F 60.8 °F 29.9 in Calm   8.7 mph 85 % 0 in
12:51 79.5 °F 53.6 °F 29.9 in East 2.9 mph 6.5 mph 40 % 0 in
12:56 79.3 °F 53.6 °F 29.9 in East 4 mph 7.8 mph 39 % 0 in
13:01 80.1 °F 53.6 °F 29.9 in ESE 2.5 mph 7.8 mph 40 % 0 in
13:06 80.2 °F 53.6 °F 29.9 in ESE 2.9 mph 6.5 mph 39 % 0 in
13:11 80.2 °F 51.8 °F 29.9 in ENE 4.9 mph 8.1 mph 38 % 0 in
13:16 80.1 °F 51.8 °F 29.9 in NE 4.9 mph 8.5 mph 38 % 0 in
13:21 80.1 °F 51.8 °F 29.9 in ESE 4.3 mph 8.5 mph 38 % 0 in
13:26 81 °F 55.4 °F 29.9 in ENE 1.1 mph 6.7 mph 39 % 0 in
13:31 81.5 °F 53.6 °F 29.9 in North 3.1 mph 7.4 mph 38 % 0 in
13:36 81.3 °F 53.6 °F 29.9 in NE 3.1 mph 7.4 mph 38 % 0 in
13:42 81.3 °F 53.6 °F 29.9 in ENE 7.4 mph 8.9 mph 37 % 0 in
13:47 81.3 °F 53.6 °F 29.9 in ENE 6.5 mph 8.9 mph 37 % 0 in
13:52 81.7 °F 53.6 °F 29.9 in NE 0.9 mph 7.8 mph 36 % 0 in
13:57 81.7 °F 53.6 °F 29.9 in ESE 4 mph 6.5 mph 36 % 0 in
14:02 82.2 °F 53.6 °F 29.9 in ENE 4.3 mph 8.7 mph 36 % 0 in
14:07 82.2 °F 53.6 °F 29.9 in ENE 6.9 mph 8.7 mph 36 % 0 in
14:12 82.4 °F 53.6 °F 29.9 in NE 2 mph 8.1 mph 36 % 0 in
14:17 83.1 °F 53.6 °F 29.9 in East 5.4 mph 8.9 mph 35 % 0 in
14:22 82 °F 51.8 °F 29.9 in NE 5.4 mph 10.1 mph 35 % 0 in
14:27 82 °F 51.8 °F 29.9 in ENE 7.2 mph 10.5 mph 35 % 0 in
14:32 81.5 °F 51.8 °F 29.9 in ENE 7.6 mph 10.5 mph 35 % 0 in
14:37 81.7 °F 53.6 °F 29.9 in ENE 4.3 mph 8.7 mph 36 % 0 in
14:42 81.9 °F 51.8 °F 29.9 in ENE 6.3 mph 8.7 mph 35 % 0 in
14:48 81.9 °F 53.6 °F 29.9 in NE 7.8 mph 8.7 mph 36 % 0 in
14:53 81.9 °F 53.6 °F 29.9 in NE 4.5 mph 8.1 mph 36 % 0 in
14:58 81.9 °F 53.6 °F 29.9 in East 5.4 mph 7.8 mph 36 % 0 in
15:03 81.9 °F 53.6 °F 29.9 in ENE 5.6 mph 8.7 mph 36 % 0 in
15:08 81.9 °F 53.6 °F 29.9 in NE 5.6 mph 8.7 mph 36 % 0 in
15:13 81.9 °F 53.6 °F 29.9 in East 2 mph 8.7 mph 36 % 0 in
15:18 81.9 °F 53.6 °F 29.9 in ENE 4 mph 5.8 mph 36 % 0 in
15:23 81.9 °F 53.6 °F 29.9 in East 5.6 mph 6.3 mph 36 % 0 in
15:28 83.1 °F 53.6 °F 29.9 in NNE 2.5 mph 7.4 mph 35 % 0 in
15:33 83.1 °F 53.6 °F 29.9 in East 1.6 mph 7.6 mph 35 % 0 in
15:38 83.1 °F 53.6 °F 29.9 in ENE 2 mph 7.6 mph 35 % 0 in
15:43 83.3 °F 53.6 °F 29.9 in ESE 5.4 mph 6.3 mph 34 % 0 in
15:48 83.7 °F 53.6 °F 29.9 in ESE 5.6 mph 8.5 mph 35 % 0 in
15:53 84.4 °F 53.6 °F 29.9 in SE 3.8 mph 8.5 mph 35 % 0 in
15:58 83.8 °F 53.6 °F 29.9 in ESE 3.4 mph 6.9 mph 34 % 0 in
16:03 83.5 °F 51.8 °F 29.9 in ENE 3.8 mph 8.1 mph 33 % 0 in
16:08 83.7 °F 51.8 °F 29.9 in East 4 mph 8.7 mph 33 % 0 in
16:13 84 °F 53.6 °F 29.9 in SSE 2.5 mph 8.7 mph 34 % 0 in
16:18 83.8 °F 51.8 °F 29.9 in East 6.9 mph 7.8 mph 33 % 0 in
16:23 83.1 °F 51.8 °F 29.9 in NE 2.9 mph 7.8 mph 33 % 0 in
16:28 83.5 °F 51.8 °F 29.9 in NE 7.4 mph 7.6 mph 33 % 0 in
16:29 83.5 °F 51.8 °F 29.9 in ENE 3.6 mph 7.6 mph 33 % 0 in
16:34 84 °F 53.6 °F 29.9 in ESE 5.6 mph 7.6 mph 33 % 0 in
16:39 84.6 °F 53.6 °F 29.9 in East 2.7 mph 7.4 mph 34 % 0 in
16:44 85.5 °F 51.8 °F 29.9 in ESE 5.6 mph 8.7 mph 32 % 0 in
16:49 86 °F 51.8 °F 29.9 in SE 8.5 mph 8.7 mph 31 % 0 in
16:54 85.8 °F 51.8 °F 29.9 in ESE 4.3 mph 8.5 mph 31 % 0 in
16:59 85.5 °F 50 °F 29.9 in East 6 mph 7.8 mph 30 % 0 in
17:04 84.4 °F 50 °F 29.9 in East 7.8 mph 8.5 mph 30 % 0 in
17:09 83.7 °F 50 °F 29.9 in ESE 4.3 mph 8.5 mph 31 % 0 in
17:14 84 °F 51.8 °F 29.9 in East 7.4 mph 8.1 mph 32 % 0 in
17:19 83.8 °F 51.8 °F 29.9 in ENE 5.4 mph 8.5 mph 32 % 0 in
17:20 83.8 °F 51.8 °F 29.9 in ENE 5.8 mph 8.5 mph 32 % 0 in
17:25 83.7 °F 51.8 °F 29.9 in NE 3.4 mph 8.5 mph 32 % 0 in
17:30 83.7 °F 50 °F 29.9 in NE 4.9 mph 7.8 mph 31 % 0 in
17:35 83.8 °F 51.8 °F 29.9 in East 4.3 mph 8.7 mph 32 % 0 in
17:40 83.8 °F 51.8 °F 29.9 in East 8.7 mph 8.7 mph 32 % 0 in
17:45 82.9 °F 50 °F 29.9 in ENE 3.6 mph 8.7 mph 32 % 0 in
17:50 83.1 °F 50 °F 29.9 in ENE 4.3 mph 7.6 mph 32 % 0 in
17:55 82.8 °F 50 °F 29.9 in East 2.5 mph 7.8 mph 32 % 0 in
18:00 82.9 °F 51.8 °F 29.9 in NE 3.6 mph 7.8 mph 33 % 0 in
18:05 82.6 °F 51.8 °F 29.9 in East 6.5 mph 7.6 mph 33 % 0 in
18:10 82.4 °F 51.8 °F 29.9 in NNE 7.4 mph 7.4 mph 33 % 0 in
18:15 82.4 °F 51.8 °F 29.9 in ESE 6.3 mph 7.4 mph 33 % 0 in
18:20 82.8 °F 51.8 °F 29.9 in ESE 3.8 mph 6.9 mph 33 % 0 in
18:25 83.1 °F 51.8 °F 29.9 in NNE 3.1 mph 7.2 mph 33 % 0 in
18:30 83.1 °F 51.8 °F 29.9 in NNE 5.6 mph 7.2 mph 33 % 0 in
18:33 83.1 °F 51.8 °F 29.9 in East 4.9 mph 7.2 mph 33 % 0 in
18:38 83.1 °F 51.8 °F 29.9 in East 6.3 mph 6.3 mph 33 % 0 in
18:43 83.1 °F 51.8 °F 29.9 in ENE 3.6 mph 7.4 mph 33 % 0 in
18:48 83.3 °F 51.8 °F 29.9 in ENE 6.5 mph 7.8 mph 33 % 0 in
18:53 83.1 °F 50 °F 29.9 in East 5.4 mph 7.8 mph 32 % 0 in
18:58 83.1 °F 50 °F 29.9 in ENE 2.5 mph 7.4 mph 32 % 0 in
19:03 83.1 °F 50 °F 29.9 in ENE 3.8 mph 7.4 mph 32 % 0 in
19:08 83.1 °F 50 °F 29.9 in ENE 3.8 mph 7.4 mph 32 % 0 in
19:13 83.1 °F 50 °F 29.8 in Calm   6.5 mph 32 % 0 in
19:19 83.1 °F 50 °F 29.8 in ENE 6 mph 6.9 mph 32 % 0 in
19:24 83.1 °F 50 °F 29.8 in ESE 4.3 mph 6.9 mph 32 % 0 in
19:29 83.1 °F 50 °F 29.9 in ESE 3.8 mph 7.8 mph 32 % 0 in
19:34 83.1 °F 50 °F 29.9 in ESE 4 mph 7.8 mph 32 % 0 in
19:39 81.7 °F 50 °F 29.9 in ENE 3.1 mph 6.7 mph 33 % 0 in
19:44 81.3 °F 50 °F 29.8 in SE 4.9 mph 6.3 mph 33 % 0 in
19:49 80.8 °F 50 °F 29.8 in NE 1.6 mph 6 mph 33 % 0 in
19:54 80.8 °F 50 °F 29.8 in Calm   6 mph 33 % 0 in
19:59 80.8 °F 50 °F 29.8 in ENE 3.4 mph 4.9 mph 33 % 0 in
20:04 80.8 °F 50 °F 29.8 in Calm   4.9 mph 33 % 0 in
20:09 80.8 °F 50 °F 29.8 in Calm   5.6 mph 33 % 0 in
20:14 80.8 °F 50 °F 29.8 in East 3.4 mph 6 mph 33 % 0 in
20:19 80.8 °F 50 °F 29.8 in Calm   6 mph 33 % 0 in
20:24 80.8 °F 50 °F 29.8 in Calm   4 mph 33 % 0 in
20:29 80.8 °F 50 °F 29.9 in Calm   3.8 mph 33 % 0 in
20:34 80.8 °F 50 °F 29.9 in East 3.4 mph 3.8 mph 33 % 0 in
20:39 80.8 °F 50 °F 29.9 in Calm   3.6 mph 33 % 0 in
20:44 80.8 °F 50 °F 29.9 in Calm   4 mph 33 % 0 in
20:49 80.8 °F 50 °F 29.9 in ENE 2.5 mph 4.3 mph 33 % 0 in
20:54 80.8 °F 50 °F 29.9 in Calm   4.3 mph 33 % 0 in
20:59 80.8 °F 50 °F 29.8 in ENE 2.7 mph 2.9 mph 33 % 0 in
21:04 80.8 °F 50 °F 29.8 in NE 2.5 mph 2.7 mph 33 % 0 in
21:09 80.8 °F 50 °F 29.8 in ENE 2 mph 4 mph 33 % 0 in
21:14 80.8 °F 50 °F 29.9 in NNE 5.6 mph 5.6 mph 33 % 0 in
21:19 80.8 °F 50 °F 29.9 in NE 4.5 mph 6.5 mph 33 % 0 in
21:25 73.4 °F 51.8 °F 29.9 in ENE 6.3 mph 6.5 mph 45 % 0 in
21:30 73.2 °F 51.8 °F 29.9 in East 6.5 mph 7.4 mph 45 % 0 in
21:35 73 °F 51.8 °F 29.9 in East 5.8 mph 7.4 mph 46 % 0 in
21:40 72.9 °F 51.8 °F 29.9 in ENE 6.5 mph 7.2 mph 46 % 0 in
21:45 72.7 °F 51.8 °F 29.9 in NE 4.9 mph 7.2 mph 47 % 0 in
21:50 72.3 °F 51.8 °F 29.9 in NE 4.3 mph 6.3 mph 47 % 0 in
21:55 72.1 °F 51.8 °F 29.9 in ENE 5.8 mph 7.8 mph 47 % 0 in
22:00 72.1 °F 51.8 °F 29.9 in ENE 3.6 mph 7.8 mph 48 % 0 in
22:05 72 °F 51.8 °F 29.9 in ENE 3.6 mph 6.3 mph 48 % 0 in
22:10 71.8 °F 51.8 °F 29.9 in ENE 3.1 mph 5.6 mph 48 % 0 in
22:15 71.6 °F 51.8 °F 29.9 in NE 4 mph 5.4 mph 49 % 0 in
22:20 71.2 °F 51.8 °F 29.9 in ENE 2.9 mph 4.9 mph 50 % 0 in
22:25 70.9 °F 51.8 °F 29.9 in Calm   4.9 mph 50 % 0 in
22:30 70.9 °F 51.8 °F 29.9 in NE 2.5 mph 4 mph 50 % 0 in
22:35 32 °F 51.8 °F 29.9 in ENE 0.9 mph 4.3 mph 0 % 0 in
22:41 70.5 °F 51.8 °F 29.9 in Calm   4.3 mph 51 % 0 in
22:46 70 °F 51.8 °F 29.9 in Calm   3.8 mph 52 % 0 in
22:51 69.6 °F 51.8 °F 29.9 in East 2.9 mph 2.9 mph 53 % 0 in
22:56 69.4 °F 51.8 °F 29.9 in Calm   2.9 mph 53 % 0 in
23:01 69.1 °F 51.8 °F 29.9 in Calm   2.9 mph 54 % 0 in
23:06 68.9 °F 51.8 °F 29.9 in Calm   2.7 mph 55 % 0 in
23:11 68.7 °F 51.8 °F 29.9 in ENE 3.8 mph 4.5 mph 55 % 0 in
23:16 68.5 °F 51.8 °F 29.8 in East 3.1 mph 4.9 mph 56 % 0 in
23:21 68.4 °F 53.6 °F 29.8 in Calm   4.9 mph 57 % 0 in
23:26 68.2 °F 51.8 °F 29.8 in Calm   2.9 mph 57 % 0 in
23:31 68 °F 53.6 °F 29.8 in Calm     58 % 0 in
23:36 67.8 °F 53.6 °F 29.8 in Calm   2.5 mph 59 % 0 in
23:41 67.6 °F 53.6 °F 29.8 in Calm   3.4 mph 60 % 0 in
23:46 67.6 °F 53.6 °F 29.8 in Calm   3.6 mph 60 % 0 in
23:51 67.5 °F 53.6 °F 29.8 in Calm   3.6 mph 60 % 0 in
23:56 67.3 °F 53.6 °F 29.8 in Calm   3.1 mph 61 % 0 in
Le Gheer Warneton
Courtoisie de Weather Underground - 2.25 mb

Mise a jour : 18/12/2017 23:04:15
Généré par Cumulus 1.9.4 (1099)